Location: Gwatt
(46.7204°N, 7.6223°E)
Time: 06:24:14
(UTC+00:00)

Tiros 1 despin weight - Pass Details

Date: 22 January 2021
Orbit: 593 x 642 km, 48.2° (Epoch: 06 March)

Event Time Altitude Azimuth Distance (km) Brightness Sun altitude
Rises 18:03:57 0° 281° (W) 2,858 ? -17.9°
Reaches altitude 10° 18:06:16 10° 282° (WNW) 1,947 ? -18.3°
Maximum altitude 18:10:44 80° 10° (N) 611 ? -19.0°
Enters shadow 18:12:00 46° 90° (E) 803 ? -19.2°
